Flag for Philippines Weather past 2 weeks in Angeles, Philippines

Now
75 °F

Partly sunny.


Feels Like: 76 °F
Forecast: 70 / 92 °F
Wind: 8 mph from North

Location: Clarkfield Pampanga International Airport

Current Time: Mar 5, 2015 at 9:08:09 AM

Latest Report: Mar 5, 2015 at 8:00 AM


Visibility: N/A

Pressure: 30.01 "Hg

Humidity: 78%

Dew point: 68 °F

Location of AngelesLocation

Historic Weather in Angeles — Graph

°F

Angeles temperature yesterday

Maximum temperature yesterday: 91 °F (at 2:00 PM)
Minimum temperature yesterday: 68 °F (at 6:00 AM)
Average temperature yesterday: 79 °F

Past Weeks' High & Low Weather Summary

 TemperatureHumidityPressure
High91 °F (Mar 4, 2:00 PM)94% (Feb 22, 1:00 AM)30.07 "Hg (Feb 22, 1:00 AM)
Low68 °F (Feb 23, 4:00 AM)26% (Mar 4, 2:00 PM)29.83 "Hg (Mar 2, 3:00 PM)
Average78 °F65%29.96 "Hg
* Reported Feb 18 8:00 AM — Mar 5 8:00 AM, Angeles, Weather by CustomWeather, © 2015

Note: Actual official high and low records may vary slightly from our data, if they occured in-between our weather recording intervals... More about our weather records

Advertising

Angeles weather history for previous 24 hours

 ConditionsComfort  
Time TempWeatherWind HumidityBarometerVisibility
8:00 AM
Thu, Mar 5
75 °FPartly sunny.8 mph78%30.01 "HgN/A
7:00 AM70 °FPartly sunny.6 mph88%30.01 "HgN/A
6:00 AM73 °FPassing clouds.6 mph83%29.98 "HgN/A
5:00 AM73 °FPassing clouds.6 mph83%29.95 "HgN/A
4:00 AM73 °FPassing clouds.6 mph89%29.95 "HgN/A
3:00 AM73 °FPassing clouds.6 mph89%29.95 "HgN/A
2:00 AM73 °FPassing clouds.5 mph89%29.98 "HgN/A
1:00 AM73 °FPassing clouds.5 mph89%29.98 "HgN/A
12:00 AM75 °FPassing clouds.5 mph83%29.98 "HgN/A
11:00 PM
Wed, Mar 4
75 °FPassing clouds.5 mph94%29.98 "HgN/A
10:00 PM75 °FPassing clouds.6 mph94%29.98 "HgN/A
9:00 PM77 °FPassing clouds.6 mph83%29.98 "HgN/A
8:00 PM79 °FPartly cloudy.9 mph70%29.95 "HgN/A
7:00 PM84 °FPassing clouds.6 mph48%29.92 "HgN/A
6:00 PM86 °FPartly sunny.5 mph46%29.89 "HgN/A
5:00 PM90 °FPartly sunny.8 mph31%29.86 "HgN/A
4:00 PM91 °FPartly sunny.8 mph30%29.86 "HgN/A
3:00 PM91 °FPartly sunny.6 mph32%29.86 "HgN/A
2:00 PM91 °FPartly sunny.5 mph26%29.89 "HgN/A
1:00 PM90 °FPartly sunny.7 mph33%29.92 "HgN/A
12:00 PM86 °FScattered clouds.5 mph46%29.95 "HgN/A
11:00 AM86 °FScattered clouds.5 mph49%29.98 "HgN/A
10:00 AM82 °FScattered clouds.3 mph55%30.01 "HgN/A
9:00 AM79 °FScattered clouds.5 mph65%29.98 "HgN/A
Weather by CustomWeather, © 2015

See weather overviewHow to use our weather pages